Location: Gunnison Valley Observatory
(38.5087°N, 106.9386°W)
Time: 13:07:35
(UTC-07:00)

Amateur Radio Satellites - All Passes

Search period start: 24 November 2014 12:37
Search period end: 25 November 2014 12:37
Location: Gunnison Valley Observatory, 38.5087°N, 106.9386°W

Satellite Date Start Highest point End Downlink Frequencies (MHz)
Time Altitude Azimuth
ITAMSAT 1 24 Nov 12:48:01 12:52:32 31° 68° (ENE) 12:57:03 435.822/435.867
YUBILEINY 24 Nov 12:50:31 12:58:08 32° 71° (ENE) 13:05:39 435.215
ITUPSAT 1 24 Nov 12:52:40 12:56:37 25° 95° (E) 13:00:32 437.325
TISAT 1 24 Nov 12:54:58 12:58:51 37° 288° (WNW) 13:02:44 437.305
SPROUT 24 Nov 12:59:10 13:03:10 39° 288° (WNW) 13:07:08 437.525
SWISSCUBE 24 Nov 13:03:58 13:08:24 36° 98° (E) 13:12:47 437.505
AUBIESAT-1 24 Nov 13:04:14 13:08:54 41° 103° (ESE) 13:13:26 437.475
M-CUBED/EXP-1 PRIME 24 Nov 13:08:06 13:12:55 50° 104° (ESE) 13:17:36 437.505
Gurwin Techsat 1B 24 Nov 13:10:01 13:14:29 28° 67° (ENE) 13:18:57 435.225
SO-50 24 Nov 13:14:26 13:19:19 82° 241° (WSW) 13:24:13 436.795
AO-7 24 Nov 13:31:54 13:36:53 18° 51° (NE) 13:41:51 29.400- 29.500
BEESAT 24 Nov 13:35:10 13:39:59 73° 102° (ESE) 13:44:45 436.000
Oscar 19 24 Nov 13:38:03 13:42:39 34° 263° (W) 13:47:17 437.125/150
CUSAT 1 24 Nov 13:40:54 13:43:19 25° 282° (WNW) 13:45:33 437.405
STARS 24 Nov 13:54:02 13:56:27 14° 93° (E) 13:58:51 437.465
DANDE 24 Nov 13:59:34 14:01:39 18° 283° (WNW) 14:03:36 436.750
ITAMSAT 1 24 Nov 14:27:22 14:31:56 31° 263° (W) 14:36:31 435.822/435.867
KKS-1 24 Nov 14:29:30 14:33:52 56° 101° (E) 14:38:13 437.445
ITUPSAT 1 24 Nov 14:30:15 14:34:30 32° 291° (WNW) 14:38:43 437.325
AUBIESAT-1 24 Nov 14:39:45 14:43:34 23° 298° (WNW) 14:47:20 437.475
SWISSCUBE 24 Nov 14:42:20 14:46:01 23° 294° (WNW) 14:49:42 437.505
PHONESAT 2.4 24 Nov 14:42:21 14:45:24 24° 149° (SSE) 14:48:28 2401.200-2431.200
HORYU 2 24 Nov 14:42:25 14:46:50 81° 257° (WSW) 14:51:17 437.375
JAS-2 24 Nov 14:43:39 14:47:32 15° 55° (NE) 14:51:28 435.910
M-CUBED/EXP-1 PRIME 24 Nov 14:44:01 14:47:32 20° 299° (WNW) 14:51:01 437.505
YUBILEINY 24 Nov 14:46:52 14:55:11 52° 271° (W) 15:03:27 435.215
Gurwin Techsat 1B 24 Nov 14:49:30 14:54:17 34° 263° (W) 14:59:07 435.225
VERMONT LUNAR 24 Nov 14:59:51 15:03:17 42° 155° (SSE) 15:06:44 437.305
BEESAT 24 Nov 15:15:21 15:17:11 12° 298° (WNW) 15:19:01 436.000
AO-7 24 Nov 15:20:06 15:28:22 80° 70° (ENE) 15:36:43 29.400- 29.500
RS-15 24 Nov 15:23:05 15:33:06 43° 108° (ESE) 15:43:01 29.354- 29.394
STARS 24 Nov 15:28:57 15:33:10 46° 287° (WNW) 15:37:21 437.465
MaSat-1 24 Nov 15:47:55 15:50:45 34° 297° (WNW) 15:53:21 437.345
KKS-1 24 Nov 16:07:54 16:10:01 13° 296° (WNW) 16:12:08 437.445
O/OREOS (USA 219) 24 Nov 16:13:05 16:17:35 85° 68° (ENE) 16:22:04 437.305
PHONESAT 2.4 24 Nov 16:20:13 16:23:56 87° 164° (SSE) 16:27:40 2401.200-2431.200
JAS-2 24 Nov 16:23:40 16:31:08 72° 73° (ENE) 16:39:00 435.910
VERMONT LUNAR 24 Nov 16:38:05 16:41:42 70° 351° (N) 16:45:20 437.305
Cubesat XI-IV 24 Nov 16:53:41 16:58:28 34° 68° (ENE) 17:03:14 437.490
MOZHAYETS 4 24 Nov 16:58:56 17:03:34 62° 101° (E) 17:08:10
PRISM 24 Nov 17:10:52 17:12:52 13° 92° (E) 17:14:51 437.425
AO-7 24 Nov 17:16:20 17:21:56 20° 268° (W) 17:27:35 29.400- 29.500
RS-15 24 Nov 17:34:29 17:45:06 54° 310° (NW) 17:55:48 29.354- 29.394
CUTE-I 24 Nov 17:34:50 17:40:12 80° 75° (ENE) 17:45:34 437.470
PHONESAT 2.4 24 Nov 17:59:11 18:02:53 62° 1° (N) 18:06:34 2401.200-2431.200
JAS-2 24 Nov 18:11:05 18:16:43 23° 270° (W) 18:22:35 435.910
VERMONT LUNAR 24 Nov 18:16:45 18:20:23 68° 8° (N) 18:24:00 437.305
STRAND 1 24 Nov 18:30:24 18:35:08 37° 98° (E) 18:39:50 437.568
Cubesat XI-IV 24 Nov 18:33:54 18:38:31 29° 264° (W) 18:43:09 437.490
CUBESAT XI-V 24 Nov 18:36:04 18:40:35 46° 99° (E) 18:45:01 437.345
MOZHAYETS 4 24 Nov 18:38:05 18:40:15 13° 296° (WNW) 18:42:24
GONETS M04 24 Nov 18:40:15 18:48:14 36° 73° (ENE) 18:56:07
PRISM 24 Nov 18:44:35 18:48:40 47° 287° (WNW) 18:52:43 437.425
HO-68 24 Nov 19:18:18 19:24:43 37° 64° (ENE) 19:31:10 435.675
CUTE-I 24 Nov 19:19:09 19:20:49 11° 270° (W) 19:22:29 437.470
SEEDS 24 Nov 19:22:39 19:25:07 16° 66° (ENE) 19:27:36 437.485
GOMX 1 24 Nov 19:31:03 19:34:15 18° 68° (ENE) 19:37:21 467.674
PCSat 24 Nov 19:32:52 19:38:07 54° 113° (ESE) 19:43:24 145.827
PHONESAT 2.4 24 Nov 19:38:04 19:41:47 75° 198° (SSW) 19:45:29 2401.200-2431.200
AIST 1 24 Nov 19:40:04 19:44:24 64° 95° (E) 19:48:47
AAUSAT CUBESAT 2 24 Nov 19:41:55 19:44:50 19° 68° (ENE) 19:47:46 437.432
CANX-2 24 Nov 19:47:02 19:50:53 36° 72° (ENE) 19:54:47 2200.000
BRITE-PL 24 Nov 19:50:40 19:55:26 41° 73° (ENE) 19:59:51 437.365/2234.400
RS-15 24 Nov 19:53:26 20:00:49 20° 340° (NNW) 20:08:19 29.354- 29.394
VERMONT LUNAR 24 Nov 19:55:20 19:58:49 45° 204° (SSW) 20:02:18 437.305
COMPASS 1 24 Nov 19:55:22 19:59:00 30° 71° (ENE) 20:02:40 437.405
DELFI C3 24 Nov 19:56:19 19:57:27 11° 64° (ENE) 19:58:36 145.870
STRAND 1 24 Nov 20:10:02 20:14:05 24° 294° (WNW) 20:18:07 437.568
BEESAT 3 24 Nov 20:11:46 20:15:46 59° 117° (ESE) 20:19:52 437.485
CUBESAT XI-V 24 Nov 20:14:38 20:17:37 17° 295° (WNW) 20:20:36 437.345
CUTE 1.7 & AOD 2 24 Nov 20:21:29 20:25:42 86° 77° (ENE) 20:29:56 437.475
BEESAT 2 24 Nov 20:25:56 20:30:01 77° 119° (ESE) 20:34:12 435.950
DOVE 4 24 Nov 20:31:46 20:36:22 58° 75° (ENE) 20:40:43 437.250
AISAT 24 Nov 20:31:48 20:32:54 11° 62° (ENE) 20:34:00 437.250
GONETS M04 24 Nov 20:36:53 20:45:09 47° 272° (W) 20:53:22
UKube-1 24 Nov 20:41:24 20:45:31 42° 72° (ENE) 20:49:39 .
FUNcube-1 24 Nov 20:43:20 20:46:24 20° 68° (ENE) 20:49:26 145.935
Oscar 11 24 Nov 20:53:37 20:57:52 64° 75° (ENE) 21:02:08 145.826/435.025
AIST 2 24 Nov 20:54:04 20:58:16 75° 119° (ESE) 21:02:33 435.215
SEEDS 24 Nov 20:56:39 21:00:36 41° 262° (W) 21:04:35 437.485
CUBEBUG 2 24 Nov 21:01:42 21:05:47 44° 73° (ENE) 21:09:48 437.445
UWE-3 24 Nov 21:04:54 21:08:54 41° 73° (ENE) 21:12:51 435.000/436.395/437.385
HO-68 24 Nov 21:05:37 21:12:17 41° 261° (W) 21:19:01 435.675
GOMX 1 24 Nov 21:07:28 21:12:07 43° 261° (W) 21:16:29 467.674
DX 1 24 Nov 21:15:17 21:19:39 76° 257° (WSW) 21:24:03 434.975-435.025
AAUSAT CUBESAT 2 24 Nov 21:16:33 21:20:17 32° 263° (W) 21:24:03 437.432
PHONESAT 2.4 24 Nov 21:17:31 21:20:14 19° 213° (SSW) 21:22:56 2401.200-2431.200
PCSat 24 Nov 21:17:40 21:21:51 22° 311° (NW) 21:26:03 145.827
CINEMA 3 24 Nov 21:18:01 21:22:28 72° 258° (WSW) 21:26:45 145.822/145.860
AIST 1 24 Nov 21:21:48 21:22:31 10° 291° (WNW) 21:23:14
CANX-2 24 Nov 21:24:15 21:26:58 17° 267° (W) 21:29:41 2200.000
DELFI C3 24 Nov 21:28:15 21:32:15 57° 260° (W) 21:36:17 145.870
BRITE-PL 24 Nov 21:30:16 21:34:00 20° 265° (W) 21:37:33 437.365/2234.400
COMPASS 1 24 Nov 21:31:42 21:34:46 20° 266° (W) 21:37:51 437.405
ESTCUBE 1 24 Nov 21:34:13 21:37:26 19° 66° (ENE) 21:40:40 437.505/2401.250
50 SAT 24 Nov 21:34:30 21:38:13 37° 72° (ENE) 21:41:56 437.505
HUMSAT D 24 Nov 21:36:21 21:40:20 48° 74° (ENE) 21:44:18 437.325/437.525
VELOX 1 24 Nov 21:39:06 21:43:29 58° 74° (ENE) 21:47:53 145.980
ZACube-1 24 Nov 21:42:46 21:47:01 82° 258° (WSW) 21:51:12 437.345
BEESAT 3 24 Nov 21:51:59 21:54:23 15° 315° (NW) 21:56:48 437.485
POLYITAN 1 24 Nov 21:57:38 21:59:31 13° 92° (E) 22:01:25 437.675
QB50P2 24 Nov 21:59:58 22:02:08 14° 92° (E) 22:04:17 145.880/145.840
AISAT 24 Nov 22:04:27 22:08:55 72° 258° (WSW) 22:13:25 437.250
DUCHIFAT 1 24 Nov 22:06:31 22:09:08 16° 93° (E) 22:11:44 145.980
BEESAT 2 24 Nov 22:07:04 22:08:51 12° 317° (NW) 22:10:39 435.950
RS-15 24 Nov 22:12:05 22:19:20 19° 18° (NNE) 22:26:43 29.354- 29.394
DOVE 4 24 Nov 22:12:34 22:14:24 12° 268° (W) 22:16:12 437.250
TISAT 1 24 Nov 22:13:20 22:14:45 11° 64° (ENE) 22:16:09 437.305
TIGRISAT 24 Nov 22:18:00 22:22:01 33° 98° (E) 22:26:07 435.000
FUNcube-1 24 Nov 22:18:48 22:22:34 31° 263° (W) 22:26:18 145.935
SPROUT 24 Nov 22:18:57 22:20:24 12° 64° (ENE) 22:21:51 437.525
UKube-1 24 Nov 22:19:17 22:21:52 15° 267° (W) 22:24:28 .
CUBEBUG 1 24 Nov 22:22:22 22:26:45 60° 74° (ENE) 22:31:08 437.445
NANOSAT C BR1 24 Nov 22:24:55 22:28:29 26° 96° (E) 22:32:02 145.865
UNISAT 6 24 Nov 22:30:42 22:35:00 48° 100° (E) 22:39:23 437.425
QB50P1 24 Nov 22:34:24 22:38:16 34° 98° (E) 22:42:06 145.935-145.965
AIST 2 24 Nov 22:35:21 22:37:25 13° 317° (NW) 22:39:31 435.215
CUSAT 1 24 Nov 22:37:31 22:39:19 12° 74° (ENE) 22:41:16 437.405
CUBEBUG 2 24 Nov 22:40:30 22:42:42 14° 267° (W) 22:44:53 437.445
UWE-3 24 Nov 22:43:14 22:45:37 15° 267° (W) 22:48:00 435.000/436.395/437.385
BUGSAT 1 24 Nov 22:51:53 22:55:49 44° 99° (E) 22:59:40 437.445
DANDE 24 Nov 22:56:40 22:59:21 15° 76° (ENE) 23:02:27 436.750
POPSAT HIP 1 24 Nov 22:58:46 23:02:59 68° 101° (ESE) 23:07:10 437.405
ANTELSAT 24 Nov 22:59:12 23:03:40 81° 284° (WNW) 23:08:12 437.575/2403.000
ESTCUBE 1 24 Nov 23:09:46 23:14:01 39° 262° (W) 23:18:18 437.505/2401.250
50 SAT 24 Nov 23:11:18 23:13:40 15° 267° (W) 23:16:02 437.505
HUMSAT D 24 Nov 23:14:44 23:16:24 12° 268° (W) 23:18:04 437.325/437.525
VELOX 1 24 Nov 23:18:42 23:20:25 12° 269° (W) 23:22:08 145.980
POLYITAN 1 24 Nov 23:31:40 23:35:44 48° 287° (WNW) 23:39:48 437.675
QB50P2 24 Nov 23:34:14 23:38:17 45° 287° (WNW) 23:42:18 145.880/145.840
DUCHIFAT 1 24 Nov 23:41:15 23:45:09 38° 288° (WNW) 23:49:02 145.980
TISAT 1 24 Nov 23:45:50 23:50:03 61° 259° (W) 23:54:18 437.305
SPROUT 24 Nov 23:51:40 23:55:57 62° 259° (W) 00:00:15 437.525
AUBIESAT-1 24 Nov 23:52:42 23:56:26 39° 66° (ENE) 00:00:30 437.475
ISS 24 Nov 23:53:15 23:56:32 77° 322° (NW) 23:59:50 145.825
TIGRISAT 24 Nov 23:55:16 23:58:34 21° 292° (WNW) 00:01:55 435.000
M-CUBED/EXP-1 PRIME 24 Nov 23:56:55 00:00:45 48° 68° (ENE) 00:04:58 437.505
ITUPSAT 1 24 Nov 23:58:28 00:02:24 26° 68° (ENE) 00:06:21 437.325
NANOSAT C BR1 25 Nov 00:00:54 00:04:15 23° 291° (WNW) 00:07:36 145.865
CUBEBUG 1 25 Nov 00:02:05 00:03:29 11° 269° (W) 00:04:53 437.445
UNISAT 6 25 Nov 00:08:49 00:11:25 16° 294° (WNW) 00:14:03 437.425
SWISSCUBE 25 Nov 00:09:24 00:13:46 36° 70° (ENE) 00:18:09 437.505
QB50P1 25 Nov 00:10:58 00:13:54 19° 293° (WNW) 00:16:50 145.935-145.965
CUSAT 1 25 Nov 00:17:45 00:22:24 73° 262° (W) 00:28:41 437.405
RS-15 25 Nov 00:24:41 00:35:27 49° 48° (NE) 00:46:37 29.354- 29.394
BUGSAT 1 25 Nov 00:28:49 00:30:55 14° 295° (WNW) 00:33:00 437.445
POPSAT HIP 1 25 Nov 00:37:58 00:38:18 10° 297° (WNW) 00:38:38 437.405
DANDE 25 Nov 00:38:19 00:42:43 54° 263° (W) 00:48:40 436.750
BEESAT 25 Nov 00:40:17 00:45:02 70° 75° (ENE) 00:49:50 436.000
STARS 25 Nov 00:51:22 00:52:58 12° 63° (ENE) 00:54:34 437.465
JUGNU 25 Nov 00:56:35 00:58:27 12° 175° (S) 01:00:20 437.505
ITAMSAT 1 25 Nov 01:04:34 01:06:06 11° 90° (E) 01:07:37 435.822/435.867
KKS-1 25 Nov 01:26:30 01:30:42 42° 72° (ENE) 01:34:55 437.445
MaSat-1 25 Nov 01:28:01 01:29:59 24° 250° (WSW) 01:32:01 437.345
AUBIESAT-1 25 Nov 01:29:11 01:31:41 16° 264° (W) 01:34:19 437.475
Gurwin Techsat 1B 25 Nov 01:29:33 01:31:21 12° 90° (E) 01:33:10 435.225
ISS 25 Nov 01:31:40 01:33:38 15° 339° (NNW) 01:35:36 145.825
M-CUBED/EXP-1 PRIME 25 Nov 01:34:22 01:36:12 13° 266° (W) 01:38:06 437.505
ITUPSAT 1 25 Nov 01:35:52 01:40:08 32° 263° (W) 01:44:27 437.325
SWISSCUBE 25 Nov 01:47:59 01:51:41 22° 265° (W) 01:55:25 437.505
YUBILEINY 25 Nov 01:49:33 01:57:28 39° 86° (E) 02:05:22 435.215
Oscar 19 25 Nov 01:50:22 01:55:33 87° 284° (WNW) 02:00:44 437.125/150
BEESAT 25 Nov 02:22:06 02:23:21 11° 270° (W) 02:24:35 436.000
STARS 25 Nov 02:24:32 02:28:54 63° 259° (WSW) 02:33:17 437.465
HORYU 2 25 Nov 02:36:13 02:39:43 22° 95° (E) 02:43:12 437.375
RS-15 25 Nov 02:37:12 02:47:53 51° 249° (WSW) 02:59:03 29.354- 29.394
ITAMSAT 1 25 Nov 02:40:56 02:46:07 77° 285° (WNW) 02:51:16 435.822/435.867
JUGNU 25 Nov 02:44:58 02:46:34 11° 186° (S) 02:48:11 437.505
SRMSAT 25 Nov 02:53:01 02:55:15 12° 178° (S) 02:57:28 437.500
KKS-1 25 Nov 03:04:46 03:07:32 16° 267° (W) 03:10:18 437.445
Gurwin Techsat 1B 25 Nov 03:06:32 03:11:52 77° 285° (WNW) 03:17:09 435.225
AO-7 25 Nov 03:24:06 03:31:06 29° 96° (E) 03:38:04 29.400- 29.500
SO-50 25 Nov 03:27:59 03:32:15 45° 116° (ESE) 03:36:40 436.795
Oscar 19 25 Nov 03:33:13 03:34:04 10° 301° (WNW) 03:34:56 437.125/150
YUBILEINY 25 Nov 03:45:51 03:54:06 43° 285° (WNW) 04:02:22 435.215
MOZHAYETS 4 25 Nov 03:59:35 04:03:59 49° 73° (ENE) 04:08:27
HORYU 2 25 Nov 04:12:25 04:16:24 32° 290° (WNW) 04:20:23 437.375
PCSat 25 Nov 04:22:23 04:27:16 33° 54° (NE) 04:32:07 145.827
BEESAT 3 25 Nov 04:33:28 04:36:59 25° 50° (NE) 04:40:27 437.485
SRMSAT 25 Nov 04:43:01 04:43:31 10° 189° (S) 04:44:00 437.500
ISS 25 Nov 04:47:17 04:49:16 15° 21° (NNE) 04:51:15 145.825
BEESAT 2 25 Nov 04:47:52 04:51:39 31° 52° (NE) 04:55:24 435.950
O/OREOS (USA 219) 25 Nov 04:48:05 04:49:25 11° 98° (E) 04:50:44 437.305
SO-50 25 Nov 05:09:33 05:13:02 21° 314° (NW) 05:16:35 436.795
Cubesat XI-IV 25 Nov 05:13:49 05:16:38 14° 91° (E) 05:19:25 437.490
AO-7 25 Nov 05:16:05 05:24:14 60° 293° (WNW) 05:32:23 29.400- 29.500
AIST 2 25 Nov 05:17:46 05:21:40 32° 52° (NE) 05:25:30 435.215
JAS-2 25 Nov 05:21:08 05:28:15 72° 101° (ESE) 05:34:27 435.910
PRISM 25 Nov 05:33:44 05:37:55 79° 257° (WSW) 05:42:10 437.425
CUBESAT XI-V 25 Nov 05:38:10 05:42:32 39° 71° (ENE) 05:46:56 437.345
MOZHAYETS 4 25 Nov 05:38:53 05:41:29 15° 268° (W) 05:44:05
STRAND 1 25 Nov 05:44:47 05:49:42 48° 71° (ENE) 05:54:38 437.568
AIST 1 25 Nov 05:50:33 05:52:54 14° 71° (ENE) 05:55:14
CUTE-I 25 Nov 05:53:52 05:58:44 35° 98° (E) 06:03:32 437.470
PCSat 25 Nov 06:05:48 06:10:38 33° 251° (WSW) 06:15:25 145.827
BEESAT 3 25 Nov 06:11:33 06:15:11 29° 247° (WSW) 06:18:47 437.485
ISS 25 Nov 06:23:04 06:26:22 77° 38° (NE) 06:29:40 145.825
O/OREOS (USA 219) 25 Nov 06:23:47 06:28:14 60° 293° (WNW) 06:32:40 437.305
BEESAT 2 25 Nov 06:26:28 06:29:47 23° 248° (WSW) 06:33:03 435.950
Cubesat XI-IV 25 Nov 06:51:52 06:57:09 65° 287° (WNW) 07:02:23 437.490
AIST 2 25 Nov 06:56:43 07:00:07 23° 249° (WSW) 07:03:28 435.215
JAS-2 25 Nov 07:07:30 07:12:22 20° 302° (WNW) 07:16:54 435.910
AO-7 25 Nov 07:12:10 07:15:17 13° 313° (NW) 07:18:24 29.400- 29.500
CUBESAT XI-V 25 Nov 07:16:41 07:20:05 20° 267° (W) 07:23:31 437.345
STRAND 1 25 Nov 07:25:32 07:29:06 19° 267° (W) 07:32:42 437.568
AIST 1 25 Nov 07:26:39 07:30:49 44° 267° (W) 07:34:56
CUTE-I 25 Nov 07:34:12 07:38:37 27° 293° (WNW) 07:43:02 437.470
GONETS M04 25 Nov 07:39:16 07:47:22 44° 87° (E) 07:55:32
BRITE-PL 25 Nov 07:59:19 08:00:25 11° 91° (E) 08:01:30 437.365/2234.400
CUTE 1.7 & AOD 2 25 Nov 08:09:40 08:12:27 17° 93° (E) 08:15:14 437.475
DOVE 4 25 Nov 08:33:40 08:36:08 15° 93° (E) 08:38:38 437.250
HO-68 25 Nov 08:34:25 08:41:11 43° 99° (E) 08:47:52 435.675
SEEDS 25 Nov 08:42:53 08:46:48 34° 97° (E) 08:50:42 437.485
Oscar 11 25 Nov 08:44:22 08:46:25 13° 92° (E) 08:48:28 145.826/435.025
DUCHIFAT 1 25 Nov 08:59:56 09:01:13 11° 64° (ENE) 09:02:30 145.980
AAUSAT CUBESAT 2 25 Nov 09:01:19 09:05:21 42° 99° (E) 09:09:22 437.432
DX 1 25 Nov 09:06:11 09:09:25 20° 95° (E) 09:12:38 434.975-435.025
CANX-2 25 Nov 09:09:28 09:13:47 88° 282° (WNW) 09:18:06 2200.000
GOMX 1 25 Nov 09:10:33 09:14:39 56° 100° (E) 09:18:50 467.674
DELFI C3 25 Nov 09:11:15 09:14:30 22° 95° (E) 09:17:44 145.870
CINEMA 3 25 Nov 09:14:45 09:18:22 27° 97° (E) 09:22:04 145.822/145.860
COMPASS 1 25 Nov 09:15:53 09:20:08 73° 102° (ESE) 09:24:23 437.405
TIGRISAT 25 Nov 09:16:20 09:19:48 25° 69° (ENE) 09:23:15 435.000
NANOSAT C BR1 25 Nov 09:17:25 09:20:19 18° 67° (ENE) 09:23:12 145.865
QB50P1 25 Nov 09:26:41 09:30:02 23° 69° (ENE) 09:33:22 145.935-145.965
UNISAT 6 25 Nov 09:29:03 09:32:56 35° 71° (ENE) 09:36:48 437.425
VELOX 1 25 Nov 09:33:43 09:35:28 12° 91° (E) 09:37:13 145.980
ZACube-1 25 Nov 09:33:47 09:36:58 20° 95° (E) 09:40:11 437.345
BRITE-PL 25 Nov 09:35:15 09:39:16 51° 286° (WNW) 09:43:19 437.365/2234.400
GONETS M04 25 Nov 09:36:07 09:44:10 39° 286° (WNW) 09:52:20
BUGSAT 1 25 Nov 09:41:08 09:44:45 27° 70° (ENE) 09:48:21 437.445
CUTE 1.7 & AOD 2 25 Nov 09:44:32 09:48:31 38° 288° (WNW) 09:52:29 437.475
POPSAT HIP 1 25 Nov 09:50:35 09:54:36 42° 73° (ENE) 09:58:37 437.405
ANTELSAT 25 Nov 09:57:16 10:01:32 75° 76° (ENE) 10:05:48 437.575/2403.000
AISAT 25 Nov 09:57:55 10:01:30 24° 96° (E) 10:05:04 437.250
UKube-1 25 Nov 10:06:37 10:10:59 82° 284° (WNW) 10:15:18 .
FUNcube-1 25 Nov 10:08:19 10:12:26 50° 100° (E) 10:16:38 145.935
DOVE 4 25 Nov 10:10:11 10:14:04 39° 287° (WNW) 10:18:03 437.250
CUBEBUG 1 25 Nov 10:15:14 10:17:00 12° 91° (E) 10:18:46 437.445
Oscar 11 25 Nov 10:18:38 10:22:51 50° 286° (WNW) 10:27:03 145.826/435.025
SEEDS 25 Nov 10:19:23 10:22:22 19° 292° (WNW) 10:25:22 437.485
HO-68 25 Nov 10:22:21 10:28:42 36° 296° (WNW) 10:35:02 435.675
POLYITAN 1 25 Nov 10:23:24 10:27:40 78° 258° (WSW) 10:31:56 437.675
QB50P2 25 Nov 10:25:44 10:30:00 73° 258° (WSW) 10:34:16 145.880/145.840
CUBEBUG 2 25 Nov 10:30:40 10:34:51 62° 285° (WNW) 10:39:08 437.445
DUCHIFAT 1 25 Nov 10:32:20 10:36:33 62° 259° (W) 10:40:47 145.980
UWE-3 25 Nov 10:32:27 10:36:41 69° 284° (WNW) 10:40:59 435.000/436.395/437.385
AAUSAT CUBESAT 2 25 Nov 10:38:08 10:40:40 16° 294° (WNW) 10:43:12 437.432
DX 1 25 Nov 10:41:50 10:45:42 32° 290° (WNW) 10:49:33 434.975-435.025
DELFI C3 25 Nov 10:46:16 10:49:46 27° 290° (WNW) 10:53:15 145.870
GOMX 1 25 Nov 10:51:05 10:52:20 11° 295° (WNW) 10:53:36 467.674
50 SAT 25 Nov 10:51:46 10:55:51 83° 102° (ESE) 10:59:56 437.505
NANOSAT C BR1 25 Nov 10:52:00 10:55:55 36° 262° (W) 10:59:52 145.865
CINEMA 3 25 Nov 10:52:09 10:55:28 23° 291° (WNW) 10:58:51 145.822/145.860
TIGRISAT 25 Nov 10:52:56 10:56:28 25° 264° (W) 11:00:00 435.000
HUMSAT D 25 Nov 10:58:00 11:02:09 69° 284° (WNW) 11:06:20 437.325/437.525
QB50P1 25 Nov 11:02:07 11:05:47 28° 263° (W) 11:09:27 145.935-145.965
ESTCUBE 1 25 Nov 11:03:58 11:08:22 48° 99° (E) 11:12:43 437.505/2401.250
UNISAT 6 25 Nov 11:06:56 11:09:50 18° 266° (W) 11:12:45 437.425
VELOX 1 25 Nov 11:08:03 11:12:23 55° 286° (WNW) 11:16:41 145.980
ZACube-1 25 Nov 11:09:39 11:13:22 31° 289° (WNW) 11:17:09 437.345
BUGSAT 1 25 Nov 11:16:48 11:20:12 23° 265° (W) 11:23:36 437.445
POPSAT HIP 1 25 Nov 11:28:15 11:30:41 15° 267° (W) 11:33:08 437.405
Oscar 19 25 Nov 11:29:43 11:32:14 14° 62° (ENE) 11:34:45 437.125/150
TISAT 1 25 Nov 11:33:10 11:36:31 23° 95° (E) 11:39:51 437.305
AISAT 25 Nov 11:34:19 11:38:06 28° 291° (WNW) 11:41:52 437.250
SPROUT 25 Nov 11:40:38 11:44:10 25° 96° (E) 11:47:40 437.525
FUNcube-1 25 Nov 11:46:22 11:48:23 13° 295° (WNW) 11:50:26 145.935
CUBEBUG 1 25 Nov 11:49:27 11:53:42 53° 286° (WNW) 11:57:54 437.445
SO-50 25 Nov 12:00:49 12:05:09 31° 50° (NE) 12:09:30 436.795
YUBILEINY 25 Nov 12:02:31 12:07:47 17° 63° (ENE) 12:13:00 435.215
ITAMSAT 1 25 Nov 12:20:25 12:23:42 17° 63° (ENE) 12:26:58 435.822/435.867
